Regional Weather Roundup
Issued by NWS San Angelo, TX

Home | Current Version | Previous Version | Text Only | Print | Product List | Glossary On
Versions: 1 2 3 4 5 6 7 8 9 10 11 12 13 14 15 16 17 18 19 20 21 22 23 24 25 26 27 28 29 30 31 32 33 34 35 36 37 38 39 40 41 42 43 44 45 46 47 48 49 50
000
ASUS44 KSJT 200610
RWRSJT
WEST CENTRAL TEXAS REGIONAL WEATHER ROUNDUP
NATIONAL WEATHER SERVICE SAN ANGELO TX
100 AM CDT SUN AUG 20 2017

NOTE: "FAIR" INDICATES FEW OR NO CLOUDS BELOW 12,000 FEET WITH NO
SIGNIFICANT WEATHER AND/OR OBSTRUCTIONS TO VISIBILITY.

TXZ049-054-064>066-071>073-076>078-098-099-113-114-127-128-139-140-
154-155-168>170-200700
...LOCATIONS ACROSS WEST CENTRAL TEXAS...

CITY           SKY/WX    TMP DP  RH WIND       PRES   REMARKS
SAN ANGELO     CLEAR     83  59  44 S9        30.01S
ABILENE        CLEAR     74  69  85 SE6       30.02S
DYESS AFB      CLEAR     72  72 100 S3        30.00F
JUNCTION       CLEAR     81  62  52 E7        30.03S
SWEETWATER     CLEAR     73  69  86 E5        30.06S
BROWNWOOD      NOT AVBL
COLEMAN        CLEAR     79  62  54 S6        30.03S
SONORA         CLEAR     79  61  53 CALM      30.08S
OZONA          FAIR      77  59  53 S6        30.07S
BRADY          NOT AVBL
$$

TEXAS PANHANDLE/OKLAHOMA PANHANDLE

CITY           SKY/WX    TMP DP  RH WIND       PRES   REMARKS
AMARILLO       CLOUDY    74  63  68 S17       30.07S
BORGER         CLOUDY    77  64  64 S14       30.03R
CANADIAN       PTCLDY    76  66  71 SW13G21   29.98S
DALHART        CLOUDY    72  64  76 SE8       30.07R
DUMAS          PTCLDY    74  64  70 S14       30.06R
GUYMON         NOT AVBL
HEREFORD       CLOUDY    74  65  72 S12G20    30.09S
PAMPA          PTCLDY    75  64  68 S15       30.05S
PERRYTON       PTCLDY    75  67  74 S12       30.00S
$$

SOUTHERN PANHANDLE/SOUTH PLAINS/ROLLING PLAINS

CITY           SKY/WX    TMP DP  RH WIND       PRES   REMARKS
LUBBOCK        MOCLDY    75  64  68 S21G26    30.08S THUNDER
SNYDER         CLEAR     75  66  73 SE3       30.04F
CHILDRESS      CLEAR     77  65  66 SW9       29.99F
SEMINOLE       PTCLDY    74  61  62 S6        30.08F
$$

PERMIAN BASIN

CITY           SKY/WX    TMP DP  RH WIND       PRES   REMARKS
MIDLAND        CLEAR     80  62  54 S6        30.05S
ODESSA         CLEAR     80  61  52 S6        30.06F
WINK           CLOUDY    77  66  68 CALM      30.02F
$$

FAR WEST/SOUTHWEST MOUNTAINS/TRANS PECOS

CITY           SKY/WX    TMP DP  RH WIND       PRES   REMARKS
ALPINE         CLOUDY    70  59  67 S3        30.20F
DRYDEN           N/A     84  61  45 E8        30.00F
EL PASO        LGT RAIN  74  59  59 N3        30.11R
FORT STOCKTON  MOCLDY    78  61  55 SW6       30.05F
GUADALUPE PASS CLOUDY    71  57  61 S6        30.22F
MARFA          CLOUDY    65  61  87 N6        30.19F
PECOS          CLOUDY    78  66  65 CALM      30.02F
$$

DALLAS/FORT WORTH METROPLEX

CITY           SKY/WX    TMP DP  RH WIND       PRES   REMARKS
DFW AIRPORT    MOCLDY    88  72  58 SE12G21   29.96S
FTW MEACHAM    CLOUDY    87  72  60 SE10      29.97S
DAL-EXECUTIVE  CLEAR     84  73  69 SE7       29.98R
GRAND PRAIRIE  CLOUDY    85  70  59 SE8       29.99S
ADDISON        CLOUDY    86  72  61 S15       29.99S
MESQUITE         N/A     80  74  83 CALM      29.98S
LANCASTER      PTCLDY    82  72  72 S3        29.99S
$$

NORTH CENTRAL TEXAS

CITY           SKY/WX    TMP DP  RH WIND       PRES   REMARKS
SHRMAN/DENISON MOCLDY    83  73  73 S13       29.99S
GAINESVILLE    CLOUDY    78  73  85 CALM      30.00S
BRIDGEPORT     CLOUDY    79  75  89 CALM      30.00R
DENTON         CLOUDY    83  73  72 SE7       29.97S
WAXAHACHIE     CLEAR     83  73  70 SE6       30.00S
GRANBURY       CLOUDY    83  70  66 SE5       29.99S
$$

WESTERN NORTH TEXAS

CITY           SKY/WX    TMP DP  RH WIND       PRES   REMARKS
WICHITA FALLS  MOCLDY    76  70  82 SE5       29.97S
VERNON         PTCLDY    76  65  70 CALM      29.99S
BRECKENRIDGE   CLOUDY    77  74  90 E3        30.00S
COMANCHE       CLEAR     80  64  57 S6        30.02S
$$

CENTRAL AND SOUTH CENTRAL TEXAS

CITY           SKY/WX    TMP DP  RH WIND       PRES   REMARKS
AUSTIN/BERGSTM CLEAR     83  69  62 S10       30.00R
WACO           CLEAR     86  68  54 S13       29.98R
HILLSBORO      PTCLDY    83  70  65 SE6       29.99R
TEMPLE         CLEAR     84  69  60 S12       30.00R
KILLEEN-GRAY   CLEAR     79  67  67 SE7       30.00R
FORT HOOD      CLEAR     83  68  59 S10       29.97R
GEORGETOWN     CLEAR     86  68  54 S12       30.02R
LAGO VISTA     FAIR      83  67  58 S7        30.03S
SAN MARCOS     CLEAR     81  70  69 S6        30.02S
NEW BRAUNFELS  CLEAR     80  70  71 S9        30.00R
RANDOLPH AFB   CLEAR     79  72  77 S8        30.02R
SAN ANTONIO    PTCLDY    82  69  64 S14G20    30.02R
STINSON        CLEAR     82  71  69 SE7       29.99R
PLEASANTON     NOT AVBL
LA GRANGE      CLEAR     82  74  78 S3        29.99S
GIDDINGS       CLEAR     82  70  68 S6        30.02S
$$

EAST TEXAS

CITY           SKY/WX    TMP DP  RH WIND       PRES   REMARKS
PARIS          MOCLDY    80  75  84 S6        29.99S
CLARKSVILLE    NOT AVBL
TYLER          PTCLDY    81  77  88 S7        29.99S
LONGVIEW       CLEAR     81  77  88 S5        29.98S
PALESTINE      CLEAR     83  74  74 SE3       30.00S
NACOGDOCHES    CLEAR     77  75  94 CALM      30.00S
$$

TEXAS HILL COUNTRY AND EDWARDS PLATEAU

CITY           SKY/WX    TMP DP  RH WIND       PRES   REMARKS
LLANO          CLEAR     79  66  65 CALM      30.04R
HORSESHOE BAY  FAIR      83  66  57 S9        30.01S
KERRVILLE      CLEAR     79  69  72 SE7       30.05S
FREDERICKSBRG  CLEAR     78  64  61 S3        30.06R
ROCKSPRINGS    NOT AVBL
HONDO          NOT AVBL
UVALDE         CLEAR     83  69  61 SE13      30.00S
DEL RIO        CLEAR     87  62  43 E14       29.94S
$$

SOUTHEAST TEXAS

CITY           SKY/WX    TMP DP  RH WIND       PRES   REMARKS
COLLEGE STN    CLEAR     83  75  77 S8        30.00R
CALDWELL       NOT AVBL
CROCKETT       CLEAR     77  73  88 CALM      30.01F
BRENHAM        CLEAR     83  75  78 S5        30.01F
HUNTSVILLE     CLEAR     82  73  74 S7        29.99F
CONROE         CLEAR     78  74  87 CALM      30.00F
HOUSTON BUSH   CLEAR     83  75  77 S5        29.99F
HOUSTON HOBBY  PTCLDY    83  75  77 SW5       29.99S
PERLAND        CLEAR     82  75  79 CALM      30.00F
WHARTON        CLEAR     79  74  85 CALM      30.01S
$$

THE UPPER TEXAS COAST

CITY           SKY/WX    TMP DP  RH WIND       PRES   REMARKS
ORANGE         PTCLDY    79  78  97 CALM      30.00S
PORT ARTHUR    CLEAR    N/A N/A N/A W5        29.98F
GALVESTON      CLEAR     84  78  82 S8        30.00S
ANGLETON       CLEAR     78  76  93 CALM      29.99F
BAY CITY       CLEAR     78  76  92 CALM      29.99F
$$

TEXAS COASTAL BEND, RIO GRANDE PLAINS DEEP SOUTH TEXAS

CITY           SKY/WX    TMP DP  RH WIND       PRES   REMARKS
VICTORIA       CLEAR     79  75  87 S7        30.00S
BEEVILLE       FAIR      79  79 100 SE5       30.00S
ROCKPORT         N/A     85  75  72 S10       29.99S
PORT ARANSAS   CLEAR     83  78  84 SE8       29.99F
PORT LAVACA    CLEAR     78  74  87 S5        30.00F
CORPUS CHRISTI PTCLDY    82  78  88 SE8       29.99S
KINGSVILLE NAS PTCLDY    82  80  94 SE6       29.99S
COTULLA        CLEAR     83  71  67 SE14      29.99R
LAREDO         CLEAR     85  73  67 SE17      29.98R
BROWNSVILLE    CLEAR     80  78  94 CALM      29.99R
PORT ISABEL    CLEAR     83  78  85 SE8       29.98S
HEBBRONVILLE   CLEAR     79  71  77 SE7       30.01S
MCALLEN        CLEAR     83  75  77 SE9       29.98S
WESLACO        CLEAR     82  75  80 S8        29.97S
FALFURRIAS     CLEAR     80  75  85 CALM      29.98F
EDINBURG       CLEAR     82  74  78 SE5       29.99S
$$




USA.gov is the U.S. government's official web portal to all federal, state and local government web resources and services.